Wind_Speed
21 22 23 23 23 24 23 20 18 17 15 9 4 5 9 9 8 6 6 7 8 7 7 8 10 12 13 15 16 17 17 17 18 22 25 26 26 25 22 19 14 10 10 11 14 19 23 26 26 25 25 28 31 33 35 37 38 39 39 38 37 36 34 31 30 31 34 38 40 41 41 40 38 36 34 33 35 37 38 38 37 37 37 39 39 39
20 21 22 23 23 23 22 18 16 16 16 12 7 4 8 10 9 8 8 9 9 9 9 9 11 12 13 14 16 17 17 17 19 21 24 26 26 25 23 18 13 9 9 11 13 15 19 24 26 26 26 28 31 33 34 34 35 36 37 37 36 36 34 31 29 30 32 36 40 42 41 40 39 38 35 34 35 36 37 36 36 37 37 38 39 40
20 21 22 23 23 22 20 18 17 17 17 13 8 4 8 11 10 8 7 8 9 9 10 10 11 13 13 14 16 17 17 18 19 22 23 25 26 25 24 19 13 9 9 11 12 14 16 20 25 27 28 30 33 34 35 34 33 33 33 34 35 35 34 32 30 29 30 33 37 39 40 39 39 39 36 35 36 37 38 36 36 37 37 39 40 41
19 21 22 23 23 21 19 18 19 19 17 14 9 5 7 10 9 7 6 5 6 7 9 10 11 13 13 14 16 17 18 18 19 20 22 24 25 25 24 20 14 9 9 10 11 13 16 18 22 26 29 31 33 35 35 35 34 32 31 32 33 34 34 32 31 29 30 31 33 35 36 37 39 39 38 36 36 38 39 38 37 38 39 41 42 42
20 21 22 22 22 20 19 18 19 19 17 14 10 6 6 8 7 5 4 4 3 4 6 8 11 13 13 14 16 18 19 19 19 20 20 22 23 24 25 22 16 11 9 8 10 13 15 18 20 23 26 29 32 33 34 35 35 34 32 31 31 31 32 32 31 30 30 30 31 32 33 35 36 38 37 36 35 37 39 39 39 38 38 41 44 44
22 21 21 20 20 20 19 18 18 17 15 12 9 6 3 4 5 5 5 4 3 2 2 6 9 12 13 14 16 18 19 20 20 20 20 21 22 23 25 23 19 13 9 7 9 12 14 17 19 21 22 25 28 31 33 34 35 35 34 33 31 30 30 31 31 31 30 31 32 32 32 33 35 35 35 35 35 36 39 39 39 38 37 38 41 44
22 21 20 19 19 18 18 17 16 15 12 9 7 4 2 2 4 4 4 4 5 4 3 3 7 10 12 13 15 18 20 21 21 20 20 21 21 23 24 25 21 15 10 7 7 10 12 16 19 20 20 21 24 27 31 33 33 34 34 34 33 32 30 30 30 30 30 31 32 33 33 33 34 34 34 33 34 34 36 39 40 40 39 37 38 40
21 21 19 18 18 18 17 16 15 13 10 8 7 5 3 2 4 4 4 4 5 6 6 3 4 8 11 12 14 16 19 21 21 21 21 21 21 22 24 27 23 16 11 7 7 8 11 15 18 19 19 19 21 25 29 31 32 33 33 34 34 34 33 31 30 29 29 29 30 31 32 33 33 33 33 34 34 33 33 36 39 41 41 41 39 38
20 20 19 18 17 17 17 16 14 12 10 8 7 6 4 2 3 4 4 5 7 8 9 7 5 6 8 11 12 14 17 20 21 21 21 21 22 23 25 27 25 18 12 8 7 8 9 13 17 19 17 18 20 23 27 29 30 31 32 33 34 34 34 33 32 31 30 29 29 30 30 31 31 31 32 34 35 35 34 35 37 40 41 42 41 40
19 19 18 17 17 16 16 16 15 13 11 8 6 4 4 3 2 3 5 6 8 10 10 10 8 6 6 8 10 11 14 19 21 22 22 22 22 22 24 28 26 20 14 10 9 8 9 11 15 18 17 17 19 22 25 27 29 30 31 31 33 34 35 35 34 33 33 31 30 29 29 29 28 28 28 33 36 38 38 38 39 40 40 41 41 41
19 19 18 17 16 16 15 15 15 14 12 8 4 2 3 4 2 1 3 5 8 10 11 10 9 7 6 6 8 10 11 15 20 22 23 22 21 22 24 28 28 22 14 13 11 9 9 10 13 16 17 17 17 20 23 26 28 30 31 31 32 33 34 35 35 34 34 34 32 31 30 28 27 26 26 29 34 38 41 42 42 42 41 40 40 41
18 18 17 16 16 16 16 15 14 14 12 9 7 4 3 3 2 2 2 1 5 9 11 12 10 9 7 5 7 9 9 12 17 21 23 22 21 22 24 28 28 24 16 13 11 9 9 10 11 14 17 17 17 18 22 25 28 30 32 31 31 32 33 34 34 34 34 34 34 33 31 29 27 26 25 26 30 35 40 43 45 44 42 41 41 42
18 17 16 15 15 15 16 16 16 15 15 13 12 11 10 7 5 4 4 2 2 6 11 12 12 11 9 7 6 8 8 8 13 19 23 23 22 22 24 28 29 26 19 14 10 9 9 10 11 14 17 18 17 18 21 24 27 30 31 31 31 32 33 34 34 34 34 34 34 34 32 31 29 27 26 26 28 33 37 42 45 46 44 43 43 44
17 17 15 14 14 15 16 16 17 17 18 17 15 14 13 11 9 7 6 3 1 5 9 11 12 11 9 6 7 9 9 7 9 15 21 23 23 23 25 28 30 28 22 16 12 10 10 11 12 14 16 18 18 18 19 22 26 28 30 31 31 31 32 33 34 34 34 35 35 35 34 32 31 29 27 27 28 31 35 40 45 47 46 45 45 44
17 16 14 13 13 15 15 16 16 16 17 17 17 15 14 12 11 10 8 5 1 4 8 11 12 12 10 6 5 8 9 8 8 11 17 21 23 23 25 27 30 30 25 19 15 12 10 12 14 15 16 18 19 19 19 22 25 27 28 29 30 31 32 33 34 34 35 36 36 36 35 34 32 30 29 28 28 30 33 37 43 47 47 47 46 45
16 15 13 13 13 14 15 15 15 15 16 17 17 16 15 14 13 11 9 6 2 4 9 12 14 14 12 9 7 9 10 9 8 8 12 18 22 24 25 27 29 30 28 23 18 14 12 12 14 16 16 17 18 20 21 23 25 26 27 28 28 29 31 33 34 35 36 37 37 37 36 35 33 32 30 29 29 30 33 35 40 44 47 48 46 45
16 15 13 13 14 14 15 15 14 15 17 18 17 16 15 15 14 12 10 7 3 4 8 10 10 10 10 9 9 11 12 11 9 7 9 14 20 24 26 27 28 29 29 25 21 16 14 13 15 16 18 18 18 20 22 23 24 26 27 27 27 28 29 32 33 35 36 37 38 37 37 35 34 33 31 30 30 31 32 35 38 42 46 46 45 44
15 14 13 13 13 15 15 15 15 16 17 18 17 17 15 15 13 11 9 7 4 1 5 7 6 6 6 9 11 12 12 12 10 8 8 13 20 25 27 27 27 28 29 27 24 20 16 15 16 17 19 19 20 21 23 23 23 24 27 28 28 27 28 30 32 34 35 37 38 38 37 36 35 34 32 31 31 31 33 34 37 40 44 45 45 43
15 14 13 12 13 15 15 15 15 15 16 17 17 17 16 16 13 11 8 7 5 2 3 5 6 7 8 10 12 12 12 12 10 9 9 11 18 25 29 28 28 28 29 28 26 23 20 18 17 17 18 19 21 22 23 23 22 22 25 27 28 28 28 28 29 31 33 36 37 38 37 36 36 35 33 32 32 32 33 34 36 39 42 44 44 43
15 14 13 13 14 15 15 14 14 15 15 16 16 16 16 15 14 12 10 7 5 3 3 6 6 7 9 11 13 13 13 13 11 10 8 7 14 23 30 30 29 28 29 29 28 26 24 21 19 18 18 20 22 23 23 23 21 21 22 25 26 27 28 28 28 29 31 33 36 37 37 36 36 35 34 33 32 32 33 34 36 38 41 44 45 44
15 15 15 14 14 14 14 15 14 14 14 14 15 15 15 15 14 13 10 8 6 3 4 6 7 7 9 9 11 13 15 14 13 11 9 6 10 18 28 30 30 29 30 30 29 28 27 25 22 21 20 20 22 23 23 23 22 20 21 23 25 26 27 27 28 29 30 32 34 37 36 36 36 35 34 34 33 32 32 34 35 38 41 43 44 45
15 15 15 14 13 13 13 14 14 14 13 13 13 13 14 14 15 14 10 8 6 5 3 5 6 7 8 7 9 12 14 14 13 12 9 5 5 11 23 29 31 31 31 32 31 30 29 28 25 23 21 21 22 23 24 24 22 21 21 23 24 25 26 26 28 29 31 32 34 36 36 36 36 35 35 34 33 32 32 33 35 37 39 41 42 44
14 15 15 15 14 13 13 13 13 13 12 12 12 12 13 13 14 13 10 8 6 4 3 4 6 8 8 7 8 11 12 12 13 13 10 6 3 7 17 25 29 31 33 34 33 31 31 30 28 26 23 21 21 23 24 24 22 21 22 23 24 25 25 26 27 29 31 33 34 35 36 36 36 36 35 35 34 33 33 33 34 36 37 38 39 41
14 15 15 14 13 13 12 13 13 13 13 11 11 12 13 14 13 12 9 7 5 3 4 5 7 7 7 7 8 10 11 11 11 12 11 7 5 6 12 19 24 28 32 34 34 32 32 31 30 28 26 22 21 22 23 23 22 21 21 22 24 25 25 25 26 27 30 34 35 35 36 36 36 36 36 35 34 33 33 33 34 35 36 37 37 38
14 14 13 13 13 13 13 13 14 13 12 11 10 12 14 14 12 10 8 6 5 5 4 5 5 5 6 8 8 8 11 12 11 11 11 10 7 6 9 14 19 24 29 33 34 34 32 32 31 29 28 25 23 22 22 22 21 21 21 22 23 24 25 25 24 25 29 33 35 35 36 36 36 36 36 35 34 33 33 34 34 36 36 36 35 35
14 14 14 14 15 15 15 15 15 13 12 9 10 12 14 13 11 9 8 7 6 5 4 3 2 4 6 8 8 8 10 13 13 12 12 11 10 8 8 11 14 17 24 29 33 34 33 33 33 31 29 28 26 24 22 22 21 21 20 21 22 23 24 24 24 24 28 32 35 35 36 36 36 36 35 34 34 33 33 33 35 36 36 35 34 35
15 15 15 16 16 15 15 15 14 12 11 9 10 11 13 12 10 9 9 8 6 4 3 2 3 6 8 9 9 9 10 12 13 13 14 13 12 10 9 10 11 14 18 23 27 30 32 34 34 33 31 30 29 27 25 24 22 21 20 21 22 23 24 24 23 24 27 32 34 35 36 36 35 35 34 33 33 33 33 34 35 36 35 34 33 34
13 14 14 15 14 14 13 13 12 11 10 10 10 11 11 10 10 10 9 6 4 3 3 3 5 7 9 9 10 10 11 12 13 14 15 15 14 12 10 10 11 12 15 17 20 24 29 33 35 35 33 32 31 30 29 27 24 22 20 20 21 23 24 24 24 25 27 31 33 35 35 35 35 34 34 34 33 33 34 34 35 36 34 33 32 34
11 12 13 13 13 12 12 11 10 10 9 9 10 10 9 9 9 9 7 5 4 4 4 5 5 6 7 8 9 10 10 10 12 14 16 16 15 13 11 10 10 11 13 14 16 18 23 29 33 35 35 35 34 33 33 30 27 24 21 21 21 22 23 24 24 24 26 29 31 33 34 34 34 34 34 34 34 34 34 35 36 35 34 33 32 33
9 9 10 10 11 11 10 10 10 9 9 9 9 9 8 8 8 8 7 5 5 5 5 5 5 5 6 8 9 9 9 9 11 14 17 17 16 15 13 12 11 11 12 14 14 15 18 24 29 33 36 37 37 37 36 34 31 28 23 22 22 22 23 24 24 24 24 26 29 31 32 33 33 33 33 33 34 34 35 36 36 36 34 33 33 34
6 6 7 8 8 9 9 9 9 9 9 8 8 8 8 7 8 8 7 5 5 5 6 5 4 4 6 9 10 10 9 10 12 14 16 17 17 16 15 14 12 11 12 13 13 12 14 19 25 30 34 37 39 40 39 38 35 31 26 24 22 23 23 24 24 24 24 24 26 29 31 32 32 32 32 33 33 34 35 36 37 37 36 35 35 35
5 5 5 5 6 7 7 7 8 8 8 8 8 8 8 7 7 7 6 5 5 5 5 5 4 5 7 9 10 10 10 11 12 14 15 17 18 18 16 15 14 12 11 13 13 11 10 14 21 26 30 34 37 39 39 38 36 33 29 26 24 23 23 23 24 24 24 23 25 28 29 31 32 32 33 33 33 34 36 37 38 39 39 38 38 37
4 3 3 3 3 4 5 6 6 7 7 7 7 7 7 7 6 6 5 5 5 5 5 5 4 5 6 9 10 11 11 11 12 14 15 17 18 19 18 17 16 14 11 11 12 12 11 14 19 24 28 31 33 35 36 37 36 34 32 29 26 24 23 23 24 25 25 24 24 26 28 30 31 33 33 33 33 34 35 36 38 40 41 41 41 40
7 6 4 3 2 1 2 4 5 5 6 6 6 6 6 6 5 5 5 5 5 5 4 4 4 5 5 8 11 13 12 11 12 14 16 17 19 20 21 20 18 16 14 12 11 12 13 14 18 23 27 30 32 32 34 35 35 34 33 32 30 27 24 24 25 25 25 25 25 26 27 29 31 32 33 33 33 33 33 34 36 39 41 43 44 44
9 9 7 6 5 4 2 1 2 3 4 5 5 5 5 4 4 4 4 4 5 4 4 4 4 5 5 7 11 13 12 10 10 13 15 17 19 21 22 21 20 19 16 13 11 11 11 14 18 23 26 28 29 30 31 32 34 34 34 34 32 30 27 26 26 26 27 27 27 27 27 28 30 31 32 32 33 33 33 33 35 37 39 42 44 46
12 11 10 9 8 7 6 4 2 1 2 3 3 3 3 3 3 3 3 3 3 4 4 4 4 5 6 8 10 11 11 9 10 12 15 17 19 20 21 22 22 20 18 15 12 10 9 12 18 24 26 27 27 27 28 29 31 32 33 34 34 32 30 28 27 28 28 29 29 29 29 29 30 30 31 32 33 34 34 34 35 36 38 39 41 44
14 14 13 12 11 10 9 7 6 4 3 2 1 2 2 2 1 1 1 1 2 3 3 3 3 4 5 7 9 10 11 11 11 13 16 18 19 19 19 21 22 21 18 15 11 8 8 13 19 25 27 27 27 27 27 27 28 29 30 32 33 32 31 30 29 29 30 30 31 31 32 32 32 32 32 32 33 34 35 35 35 36 36 38 39 42
16 15 15 14 13 12 11 10 8 7 5 3 2 1 1 1 1 0 0 0 1 1 2 2 2 3 3 6 8 11 12 13 13 14 17 18 18 18 18 19 20 20 18 15 11 8 9 16 22 27 28 29 29 29 29 29 29 30 30 31 31 31 31 31 30 30 31 32 32 33 34 35 35 35 34 34 34 35 36 36 37 38 38 39 41 43
17 17 16 15 14 13 12 12 10 8 7 5 4 2 1 1 1 1 1 1 1 0 1 1 2 2 2 4 6 9 12 13 13 14 16 17 18 17 16 16 17 18 18 15 11 9 12 18 24 27 30 31 31 31 31 31 32 33 33 32 31 30 31 32 32 32 32 33 34 35 36 37 37 37 37 37 37 37 38 39 40 41 42 44 46 48
18 17 16 15 14 14 13 12 11 9 8 7 5 4 2 2 2 2 3 2 2 1 0 0 1 2 2 3 5 7 9 11 12 13 15 17 17 16 16 15 15 16 17 16 13 12 14 19 23 26 31 33 34 34 33 33 34 35 35 35 34 34 33 34 34 34 34 35 36 37 39 39 39 39 39 39 39 39 40 41 43 44 45 47 50 54
19 18 17 16 14 13 12 12 11 10 10 8 7 5 3 3 3 3 4 3 3 2 1 0 1 1 2 3 4 6 8 9 11 12 14 16 17 16 15 14 14 15 16 16 14 14 16 18 21 25 31 34 35 36 36 36 36 36 37 38 39 38 37 37 37 37 37 37 38 39 40 41 41 41 41 41 41 41 41 43 45 46 47 48 50 55
20 19 18 17 15 14 13 12 11 11 10 9 8 6 5 5 5 5 5 4 3 2 2 1 1 1 2 3 4 5 7 9 10 12 14 15 16 16 15 14 14 14 15 16 15 15 17 18 21 26 32 35 37 38 38 38 38 39 40 41 42 42 41 40 40 40 40 41 41 41 42 43 44 44 44 44 45 44 44 45 46 48 50 51 52 53
21 19 18 17 16 14 13 12 11 11 11 10 9 8 7 7 7 7 6 4 3 3 2 1 1 2 3 3 4 5 7 8 9 10 12 14 15 15 14 13 13 13 14 15 16 17 18 19 21 26 32 36 38 39 40 41 41 41 42 42 43 44 45 45 44 44 44 44 45 45 45 45 46 46 46 47 47 48 48 49 49 50 52 54 54 54
22 20 18 17 16 14 14 13 13 13 13 12 11 10 8 8 8 8 7 5 4 3 2 1 1 2 3 3 3 4 6 7 8 9 10 13 14 15 14 13 12 12 13 14 16 18 20 20 22 26 31 36 39 40 41 42 43 43 43 43 44 45 47 48 49 49 49 49 48 48 48 48 48 48 48 48 49 49 50 51 52 52 53 54 55 54
23 21 19 18 17 16 16 15 15 14 14 13 12 11 10 9 8 8 7 5 4 3 2 1 1 2 3 4 4 5 6 7 8 8 9 12 14 14 14 14 13 13 13 14 15 18 21 22 23 26 31 35 39 41 42 43 44 45 45 45 45 46 48 49 50 51 51 51 51 51 50 49 49 49 50 50 51 52 52 53 53 54 54 54 54 53
24 23 21 19 18 17 17 16 16 16 15 14 13 12 10 9 9 8 7 5 4 2 2 0 1 3 4 5 5 6 7 9 9 9 10 11 13 14 15 15 14 14 13 14 15 18 21 24 26 27 29 33 38 42 43 44 45 46 47 47 47 48 48 50 51 52 52 52 53 53 52 51 51 51 51 52 52 53 53 53 54 54 54 53 52 51
26 24 22 21 19 18 17 17 17 16 16 15 14 13 12 10 9 8 7 5 4 3 3 2 2 4 6 6 7 8 10 11 11 11 12 12 13 14 15 16 15 15 14 14 15 18 22 26 28 29 29 32 36 41 44 46 47 47 48 49 49 49 50 51 52 53 53 54 54 54 53 53 52 52 52 52 53 54 54 54 54 53 53 53 51 50
27 26 24 22 21 19 18 18 17 16 16 15 15 14 13 11 10 9 7 6 4 3 3 3 4 5 7 8 9 10 12 13 14 14 14 14 14 15 16 17 17 16 15 14 15 18 23 28 30 31 30 31 35 40 44 46 48 49 50 50 50 51 51 52 53 54 54 54 54 54 54 54 54 53 53 53 53 54 54 55 55 53 53 52 51 50
29 27 26 24 23 21 20 19 18 17 16 15 15 14 14 12 10 9 8 6 5 3 3 4 5 7 8 9 10 12 13 14 15 16 17 17 17 17 17 18 18 19 18 17 16 18 23 29 32 33 31 32 35 40 45 47 49 49 50 51 51 52 53 53 53 54 55 55 55 55 54 54 53 52 52 53 54 54 54 55 54 53 52 52 52 51
30 29 28 26 25 23 21 20 19 17 16 15 15 14 13 12 11 9 8 6 5 4 4 4 6 7 9 10 11 13 14 15 17 18 18 19 19 19 19 18 19 20 20 20 18 19 24 29 32 33 32 32 34 39 43 47 49 50 51 51 52 53 54 54 54 54 55 56 56 56 55 55 54 52 52 53 54 55 55 54 53 52 52 52 52 52
31 30 29 28 27 25 23 21 20 18 16 15 14 13 13 12 12 10 8 7 5 4 3 4 5 7 9 10 12 13 14 16 17 19 19 20 20 20 21 20 20 20 21 22 22 24 27 29 30 29 28 30 33 36 40 45 49 51 52 52 53 53 54 54 54 55 56 56 57 56 56 55 54 53 53 53 54 54 54 53 52 51 51 51 52 52
Wind_Direction
312 312 314 315 316 318 319 325 329 330 330 326 293 215 203 204 206 215 234 252 264 273 271 245 223 207 194 188 192 199 206 214 225 234 240 243 243 239 230 221 219 228 240 236 218 201 191 186 184 184 184 184 186 190 193 195 197 198 199 200 199 196 194 194 197 199 200 201 200 200 201 203 204 202 198 195 196 199 202 204 207 208 204 200 198 199
315 314 314 316 317 318 320 329 336 336 334 331 318 244 204 203 206 214 230 244 257 267 268 249 227 211 199 185 183 189 199 209 220 230 237 241 242 239 231 222 219 231 245 240 225 207 192 185 184 184 185 185 187 189 192 195 197 199 200 198 196 193 192 191 193 195 197 199 200 200 201 202 203 202 199 195 196 199 201 202 204 205 203 200 197 197
315 315 315 317 320 322 325 333 341 343 340 333 320 269 208 201 202 208 223 237 250 261 263 248 229 215 205 189 181 182 190 203 217 227 234 238 240 238 231 223 222 235 249 241 228 214 199 187 183 183 185 186 187 188 189 191 192 194 196 196 194 193 191 190 190 191 192 195 197 199 201 203 204 204 201 197 197 199 202 202 202 202 201 200 198 197
316 316 317 320 323 326 330 335 340 342 339 332 318 272 214 203 201 202 211 221 241 257 262 250 232 218 209 194 184 182 187 199 210 220 228 233 236 236 230 223 223 237 251 243 229 217 206 193 185 182 183 186 187 188 189 189 189 188 189 191 193 193 192 191 190 190 189 191 194 197 200 202 204 205 205 201 198 199 202 203 202 201 200 198 196 195
317 319 321 323 325 327 332 337 339 338 334 328 318 292 227 204 195 183 174 184 210 246 258 250 235 222 213 199 188 185 188 196 205 213 220 226 231 231 227 222 224 237 250 244 228 217 211 202 190 182 180 182 185 187 189 190 189 187 186 187 190 193 194 193 191 190 189 189 191 195 198 200 202 205 206 204 200 199 201 202 203 202 201 196 193 192
320 323 324 325 325 327 332 338 340 337 332 325 321 313 266 206 183 161 145 139 134 144 234 246 238 228 218 204 191 186 188 195 202 209 214 220 224 226 222 218 221 232 244 241 225 217 215 208 198 186 179 178 180 183 186 188 189 189 187 186 187 191 195 196 194 192 190 189 190 192 195 197 199 201 203 203 200 197 199 200 202 202 202 195 190 189
322 325 327 327 327 328 331 337 341 341 336 332 335 341 321 213 187 172 154 138 126 121 129 241 245 235 223 209 194 187 187 193 200 206 211 215 220 221 219 214 217 227 238 234 220 216 218 215 206 195 185 179 177 178 182 185 188 189 189 187 187 188 192 195 196 194 193 191 190 189 191 194 196 197 198 199 198 196 196 198 200 201 202 198 193 189
323 327 329 331 331 331 331 335 342 349 348 348 352 352 322 215 192 180 158 148 139 134 132 145 236 242 230 215 200 189 186 189 195 202 208 213 217 219 216 211 213 221 231 228 217 217 223 220 214 205 193 185 179 177 180 182 185 188 190 189 188 188 189 192 194 195 195 195 193 191 190 190 192 193 195 195 196 195 195 195 197 200 201 200 197 193
323 326 330 333 335 334 331 331 339 353 5 10 8 356 323 250 199 174 153 154 152 149 147 150 178 226 234 223 209 195 185 185 190 197 204 211 216 217 215 209 209 213 221 219 213 218 232 229 220 211 203 192 184 181 181 182 184 186 190 190 190 189 189 190 192 193 195 196 197 196 193 191 189 190 193 195 195 194 193 192 195 198 201 201 201 198
324 327 329 332 335 335 332 330 334 347 7 21 20 357 327 304 254 181 160 159 156 155 158 165 170 187 223 228 218 202 188 184 186 193 200 207 213 215 212 207 205 206 211 207 206 216 239 238 226 216 210 199 190 185 184 184 184 185 188 190 190 190 190 191 192 193 194 195 197 198 197 195 192 191 193 195 195 194 192 192 194 198 201 202 201 201
325 328 329 331 334 335 333 333 334 340 354 10 17 342 304 306 299 234 174 153 146 148 157 171 178 180 193 219 222 210 192 183 183 189 197 204 210 212 209 204 202 202 204 200 201 216 245 248 231 218 213 207 198 191 188 187 186 185 187 189 190 190 191 192 193 193 195 195 196 197 197 197 197 196 196 197 196 195 193 192 195 198 200 200 200 199
325 327 329 331 332 335 337 337 337 338 346 356 2 354 332 321 316 318 327 113 126 132 142 157 169 175 174 187 213 216 199 182 179 184 192 200 206 208 206 202 200 200 200 198 202 221 251 255 235 217 213 211 204 195 190 189 187 187 189 190 190 190 190 191 192 193 195 196 196 196 196 197 198 199 200 200 199 197 195 194 195 197 198 198 197 196
324 327 329 330 330 333 337 343 344 345 348 352 354 354 351 351 350 344 340 343 80 111 126 140 150 159 167 177 202 215 209 191 178 179 186 195 202 206 204 201 200 200 200 201 209 226 244 247 234 219 213 212 206 198 192 189 189 190 192 193 193 192 191 190 191 192 194 195 196 196 195 195 196 198 200 202 202 200 197 195 195 196 197 196 195 193
324 327 329 329 329 331 337 344 348 350 349 347 346 345 343 343 344 343 339 335 42 107 119 129 137 144 155 170 203 219 219 208 183 176 181 191 199 204 203 201 200 200 200 205 216 229 239 236 229 221 215 213 209 202 194 190 189 190 194 196 196 195 193 191 190 191 193 194 195 195 195 194 195 197 199 202 204 203 200 197 196 196 196 195 194 193
324 326 328 327 327 328 333 340 345 346 343 341 340 339 339 339 339 342 344 343 21 121 123 127 129 131 135 149 193 217 218 213 192 175 176 183 192 200 203 201 200 200 200 206 216 229 239 233 225 220 217 215 212 205 196 190 187 189 193 196 198 197 195 193 192 192 193 194 195 195 194 194 195 197 199 201 204 204 202 199 197 196 195 195 194 194
322 324 325 324 324 325 329 335 339 340 338 337 338 340 341 340 340 344 348 349 19 126 131 133 131 127 125 135 163 189 203 204 193 174 169 174 185 195 200 201 200 200 201 205 213 224 235 233 224 219 219 219 215 208 199 191 186 186 190 194 197 198 196 195 194 193 194 194 194 194 193 193 195 197 199 201 203 204 204 202 200 197 196 195 193 193
319 322 322 322 322 322 325 331 335 336 335 334 335 338 340 340 341 345 349 353 15 131 143 139 135 130 127 131 156 184 201 200 192 174 165 169 178 188 197 199 199 200 201 205 209 218 229 235 227 219 219 222 220 213 204 193 186 184 186 190 194 196 196 195 195 195 195 195 194 193 192 193 195 198 200 201 202 203 203 203 202 200 197 195 192 191
316 318 320 320 320 320 322 328 333 335 332 330 332 335 338 339 341 344 348 352 359 128 158 153 146 138 131 119 138 167 195 199 197 187 170 167 174 184 192 195 197 199 202 205 209 215 223 231 228 221 218 222 224 219 208 197 188 185 187 189 191 195 197 196 195 195 195 195 194 192 191 192 196 199 200 201 202 202 202 202 201 200 198 195 193 192
313 314 316 317 318 318 321 326 330 330 328 327 329 333 337 337 337 337 338 341 343 330 180 177 166 151 138 125 133 153 181 195 202 199 180 165 168 176 187 191 194 197 200 204 208 212 219 224 226 224 221 224 225 220 210 198 191 189 190 190 191 194 196 196 195 195 196 196 194 191 190 193 197 200 201 202 202 202 201 201 200 199 197 196 195 194
310 310 311 313 314 317 319 323 326 326 323 323 326 331 334 332 329 326 328 330 327 300 204 195 186 166 148 134 133 147 172 189 200 202 191 165 160 170 182 186 189 193 198 201 204 208 213 218 222 225 227 227 225 218 208 198 194 194 195 194 194 195 196 196 196 196 197 197 194 191 190 195 198 200 201 202 202 202 201 200 199 198 197 196 196 197
306 306 305 307 311 314 317 321 321 319 318 319 326 333 334 327 319 317 322 326 323 296 223 210 201 183 162 142 129 138 162 177 188 194 196 168 153 165 177 182 185 189 195 200 203 205 209 213 218 222 226 225 220 212 204 197 196 199 201 198 197 197 198 197 198 199 200 199 195 192 192 196 199 200 201 202 202 201 201 200 200 199 198 197 197 198
301 300 300 303 307 312 316 318 317 315 314 317 328 334 328 318 311 310 316 322 323 310 266 234 213 193 174 153 132 134 149 164 177 185 189 168 134 155 172 179 183 187 193 199 203 205 207 210 213 217 220 218 212 205 200 197 198 202 204 202 200 200 200 200 201 202 202 200 196 193 194 198 199 200 201 202 202 201 200 200 200 200 200 199 199 200
295 296 297 300 305 311 316 316 313 310 309 313 323 326 316 306 302 304 311 315 316 306 261 219 199 187 176 156 131 125 135 156 175 185 185 171 152 162 169 176 181 186 191 197 202 205 207 209 210 212 214 212 205 199 197 197 200 204 206 205 204 202 202 203 205 205 202 199 196 195 195 198 199 199 201 202 202 200 199 199 199 200 201 201 201 201
291 292 295 299 304 309 312 310 306 302 302 307 316 315 303 294 293 297 303 303 296 270 231 199 189 187 185 169 144 126 125 143 166 182 190 191 185 167 164 170 177 185 190 195 198 202 206 208 209 209 210 209 204 199 197 198 202 206 208 208 206 205 204 205 208 206 199 195 194 195 197 198 198 199 201 203 202 200 199 198 198 198 199 199 199 197
286 287 291 293 294 295 294 291 289 289 291 299 308 306 295 289 289 294 298 297 282 263 251 232 220 208 197 188 168 138 124 135 151 171 189 201 207 192 170 166 175 184 190 194 197 200 203 207 209 210 209 209 208 205 201 201 204 207 209 210 208 207 206 208 209 205 196 192 193 195 198 199 198 197 200 201 201 200 199 198 197 197 196 195 192 189
277 277 278 278 278 278 277 276 277 279 281 285 295 296 288 286 288 293 297 297 292 285 287 288 258 204 190 182 168 145 131 136 148 166 183 195 205 207 191 170 167 176 187 192 196 199 201 205 209 211 210 211 212 212 209 206 206 208 211 211 210 209 207 208 209 205 197 193 194 196 199 199 197 197 198 199 199 198 197 197 196 195 193 188 184 183
274 272 271 270 271 272 273 275 278 280 277 271 272 277 279 282 285 289 294 299 295 283 272 239 177 169 176 178 173 160 143 140 148 162 176 187 197 203 199 176 162 165 177 186 192 195 198 202 207 210 210 211 214 216 215 210 208 209 211 212 212 210 208 208 209 207 201 197 196 197 198 197 196 195 196 197 197 196 196 196 195 192 188 183 182 186
278 275 274 274 276 278 280 283 286 286 280 268 264 268 277 281 284 289 294 294 282 256 229 204 183 173 173 173 174 168 156 148 149 158 172 182 191 199 199 181 164 160 167 175 181 187 192 198 203 207 210 211 214 217 219 215 210 209 211 213 213 211 208 207 207 206 203 200 199 198 197 195 194 194 194 195 195 195 195 195 193 189 185 182 184 190
282 279 279 280 282 285 288 290 291 290 286 276 272 274 281 284 286 289 292 283 270 260 248 227 209 193 176 165 164 166 162 156 154 160 169 177 186 195 197 188 175 165 162 161 166 175 183 191 197 202 206 210 213 217 220 217 212 209 211 212 212 211 209 206 205 205 203 201 199 197 195 193 192 192 192 193 193 193 192 191 189 186 183 182 185 191
283 280 279 281 284 287 290 291 291 291 289 285 283 285 289 287 286 287 289 279 272 271 266 250 227 197 165 150 152 160 168 169 165 164 169 174 181 189 194 196 189 174 159 150 152 163 176 184 189 194 200 205 209 214 218 217 214 210 210 211 211 210 208 205 204 204 203 200 198 195 193 191 190 190 190 190 190 189 188 187 186 183 181 181 184 190
289 283 279 280 282 284 286 286 286 286 285 285 285 288 291 288 286 288 292 281 269 265 263 258 239 193 163 155 152 152 158 173 173 169 172 173 176 183 193 202 201 184 162 151 147 154 170 181 186 188 192 196 202 208 213 214 212 209 209 210 211 209 207 205 203 203 203 201 198 195 193 192 191 191 190 189 188 187 186 185 184 182 179 178 182 186
312 299 291 287 285 283 281 280 279 278 277 277 280 283 287 287 286 287 290 278 260 251 249 246 233 204 182 176 166 155 148 166 174 174 175 172 173 180 191 203 207 198 176 161 154 152 159 176 186 189 188 189 192 198 204 207 207 206 206 209 211 209 206 202 200 200 202 202 200 197 195 194 194 194 193 191 189 187 185 185 184 181 178 177 179 182
10 357 336 313 296 284 278 276 273 272 271 273 275 278 282 284 283 279 276 266 255 247 244 243 235 219 201 187 173 160 153 166 177 179 177 173 173 179 190 201 208 207 195 176 162 154 155 169 183 189 189 186 186 188 193 197 200 202 204 207 210 210 205 200 197 197 199 201 201 199 197 197 197 197 197 195 192 189 186 185 183 181 179 177 178 179
35 36 38 37 24 322 275 269 268 268 269 271 273 275 277 278 276 269 260 254 251 248 242 240 235 228 211 186 170 162 160 171 181 183 179 176 176 181 189 199 207 210 207 196 176 162 160 167 180 187 189 187 185 186 188 190 192 196 201 204 208 210 206 200 195 195 196 199 201 200 199 200 201 201 201 200 197 194 190 187 184 182 180 179 179 179
37 39 43 47 52 54 49 330 276 273 273 273 273 273 273 273 269 263 256 252 249 246 236 226 221 217 209 193 178 169 164 170 181 184 182 181 181 183 189 197 204 210 212 209 196 180 173 172 179 184 187 185 185 186 187 188 188 190 194 198 203 207 206 201 197 194 195 197 199 200 200 201 202 204 204 204 202 199 195 192 189 188 187 185 183 181
36 38 40 43 47 52 55 53 42 6 312 289 283 280 277 274 269 260 252 246 244 242 239 230 217 208 202 196 189 181 172 171 180 188 189 188 186 185 189 196 202 207 212 213 208 199 190 181 180 182 183 181 181 182 185 186 186 186 188 191 195 199 202 202 198 195 194 196 197 197 197 197 198 200 202 203 203 201 200 198 196 195 194 194 191 186
34 35 37 39 42 46 50 51 50 45 34 7 310 289 281 278 278 270 239 224 225 235 245 251 243 226 208 198 193 186 178 177 184 192 195 194 190 188 189 194 199 204 209 210 210 210 202 185 179 178 181 180 177 177 179 182 183 183 183 186 189 192 195 198 198 196 195 195 195 195 195 194 193 194 195 197 198 199 198 197 197 197 197 197 196 194
31 32 35 36 38 42 45 47 46 43 38 31 14 324 298 298 322 5 50 137 198 234 266 281 281 264 233 209 195 186 180 181 187 194 198 197 194 190 188 191 196 201 205 205 205 206 201 183 174 171 175 176 176 175 177 179 180 181 181 183 185 187 190 193 195 196 195 194 194 194 194 193 192 190 190 191 192 192 191 191 191 193 194 194 194 192
30 31 33 35 37 38 40 41 40 38 36 32 25 18 14 37 58 61 60 57 57 21 298 298 298 289 264 226 204 193 186 186 190 194 198 198 195 190 185 185 190 196 202 203 203 202 195 180 172 169 170 170 171 174 177 179 180 180 180 179 181 185 189 191 192 194 195 195 194 193 192 192 190 188 187 187 187 187 185 184 184 186 189 188 186 185
29 30 33 35 35 35 36 36 36 37 37 36 33 31 38 59 73 75 71 68 60 50 25 264 265 268 262 239 217 203 195 191 191 195 199 199 195 188 181 178 182 188 196 201 203 201 195 182 174 171 172 171 171 172 175 178 181 181 179 176 175 178 184 187 189 191 193 194 194 193 191 190 188 186 184 184 184 184 183 182 182 184 187 186 182 178
29 30 32 33 34 35 37 39 38 38 39 40 41 42 46 64 73 72 71 70 63 46 17 323 270 258 253 241 224 208 197 191 191 196 199 199 195 187 179 174 175 182 190 196 201 202 198 186 175 170 172 173 173 173 174 176 179 180 178 174 172 174 178 182 185 187 189 191 192 192 190 187 185 183 181 180 180 181 182 180 180 182 185 187 185 180
29 30 31 31 32 34 38 40 42 44 45 46 45 43 44 55 65 70 70 66 59 50 29 6 327 270 245 243 222 205 194 191 193 197 199 198 194 188 180 174 174 179 185 188 194 200 201 191 178 170 171 173 173 171 170 171 174 177 178 176 173 172 173 176 180 183 185 185 187 188 188 185 182 180 178 177 176 177 178 179 179 180 181 182 183 182
31 31 30 29 30 33 37 41 46 50 51 50 48 44 44 49 57 62 65 62 55 49 41 30 325 279 272 253 226 202 190 190 193 197 198 197 194 190 185 179 178 180 182 184 189 196 200 194 180 170 169 173 174 172 168 167 169 174 177 178 175 170 165 167 172 177 181 181 182 183 184 183 181 180 178 176 175 174 175 176 178 180 180 179 178 179
31 31 30 30 31 33 36 41 45 48 49 49 49 47 46 50 55 60 63 63 59 51 41 24 324 276 264 245 231 209 188 184 187 193 196 197 196 193 190 187 186 185 183 186 190 194 198 195 182 171 166 170 174 175 172 170 169 170 173 175 176 172 167 166 168 171 173 176 178 180 182 183 182 181 179 177 176 175 175 175 177 179 180 179 179 179
32 32 31 31 30 32 35 39 42 45 47 49 49 48 47 50 55 59 64 68 68 64 59 40 284 238 222 214 206 196 186 179 180 187 193 196 197 196 194 193 193 190 188 190 193 197 198 193 183 171 165 167 172 174 174 172 170 168 168 171 173 174 172 171 171 172 173 175 177 179 182 183 183 181 179 177 175 175 175 176 177 178 180 180 181 181
33 32 33 32 32 33 35 37 39 43 46 48 48 48 48 50 53 58 64 71 80 91 93 102 215 207 197 193 185 177 173 172 175 180 185 191 194 195 195 196 197 196 195 193 195 197 197 192 182 171 163 164 167 171 174 173 171 168 167 170 172 173 172 171 172 174 176 177 177 179 181 183 183 181 178 176 174 174 175 176 177 178 180 181 183 184
33 33 33 33 33 34 34 35 38 41 44 46 47 47 47 48 51 55 63 73 85 105 130 160 193 195 186 177 169 162 158 159 163 169 175 180 185 188 191 195 199 201 201 198 197 197 196 191 181 171 163 161 161 165 169 173 173 171 170 172 174 174 172 171 172 174 175 176 177 178 180 181 181 181 179 177 175 173 174 175 177 179 181 182 184 185
34 34 33 34 34 34 34 35 37 40 43 44 45 45 46 46 48 52 61 70 83 108 146 166 176 179 176 168 161 156 152 150 152 158 164 167 172 179 185 191 197 202 205 204 201 197 193 188 180 172 164 160 160 161 165 171 174 174 174 175 176 176 174 173 173 173 174 175 176 178 179 180 181 180 180 177 175 173 173 174 176 178 180 182 184 185
35 34 34 34 34 34 34 35 37 39 41 42 43 44 45 45 45 48 54 62 76 103 136 151 165 170 167 162 159 156 154 151 152 155 158 160 163 168 175 183 192 199 204 207 205 198 191 185 180 173 165 161 161 162 165 170 173 174 175 176 177 177 176 175 174 174 174 174 175 176 178 180 182 183 181 177 174 172 172 173 174 176 178 180 182 184
35 35 35 35 35 35 35 35 36 37 39 41 42 44 45 46 46 47 48 54 68 95 125 144 159 164 163 159 156 154 152 151 152 153 156 158 160 161 164 172 181 190 196 200 199 193 186 180 177 173 167 162 161 162 165 168 171 173 174 175 177 178 177 176 175 175 175 174 174 174 175 177 180 182 182 178 174 172 171 171 172 173 175 177 180 182
35 35 35 36 36 36 35 35 35 35 37 39 41 44 46 48 49 50 50 53 63 84 114 140 156 161 160 159 156 154 153 152 151 151 154 158 159 159 160 163 170 178 184 186 185 182 176 172 169 167 164 160 159 161 164 167 169 170 171 173 175 177 177 176 176 176 175 174 174 174 174 175 176 178 180 178 174 170 169 168 168 170 172 175 177 178
Height
1390 1389 1388 1387 1386 1385 1383 1382 1382 1381 1380 1379 1379 1379 1380 1380 1380 1380 1380 1379 1379 1378 1378 1378 1378 1378 1379 1380 1382 1383 1384 1385 1386 1387 1388 1389 1391 1392 1393 1394 1394 1394 1396 1399 1402 1403 1405 1406 1408 1410 1413 1416 1418 1420 1422 1424 1426 1429 1432 1435 1437 1439 1441 1442 1444 1446 1448 1451 1453 1456 1459 1462 1465 1468 1471 1473 1476 1478 1481 1483 1484 1485 1487 1489 1491 1493
1390 1388 1387 1386 1385 1384 1382 1382 1381 1381 1380 1379 1378 1378 1379 1379 1379 1379 1379 1379 1378 1379 1379 1378 1378 1378 1378 1379 1380 1382 1383 1384 1385 1387 1387 1388 1390 1391 1393 1393 1393 1393 1395 1397 1400 1402 1404 1405 1407 1409 1412 1415 1417 1420 1422 1423 1425 1427 1430 1433 1435 1437 1440 1442 1443 1445 1447 1449 1452 1455 1458 1461 1463 1466 1469 1472 1475 1477 1479 1481 1483 1484 1486 1488 1490 1492
1389 1387 1386 1385 1384 1383 1382 1381 1380 1380 1379 1378 1378 1377 1378 1378 1378 1378 1378 1378 1378 1378 1378 1378 1378 1377 1378 1378 1379 1380 1382 1383 1385 1386 1387 1387 1389 1391 1392 1393 1393 1393 1394 1396 1399 1401 1403 1404 1406 1408 1411 1414 1417 1419 1421 1422 1424 1426 1429 1432 1434 1436 1438 1441 1442 1444 1446 1448 1451 1454 1457 1459 1462 1465 1467 1470 1473 1476 1478 1480 1482 1483 1485 1487 1489 1491
1389 1387 1386 1384 1383 1382 1381 1380 1379 1379 1378 1378 1377 1377 1377 1377 1377 1378 1378 1377 1377 1378 1378 1378 1378 1377 1377 1378 1379 1380 1381 1383 1384 1385 1386 1387 1388 1390 1392 1392 1393 1393 1394 1396 1398 1400 1402 1403 1405 1407 1409 1412 1415 1417 1419 1421 1423 1425 1427 1430 1432 1434 1437 1439 1441 1442 1444 1447 1449 1452 1455 1458 1461 1463 1466 1468 1471 1474 1477 1479 1481 1482 1484 1486 1487 1490
1388 1387 1385 1384 1382 1382 1381 1380 1379 1379 1378 1377 1377 1376 1376 1376 1377 1377 1377 1377 1377 1377 1377 1377 1377 1377 1377 1377 1378 1380 1381 1382 1384 1385 1386 1387 1387 1389 1391 1392 1392 1393 1394 1395 1397 1400 1402 1404 1405 1407 1408 1411 1414 1416 1418 1420 1422 1424 1427 1429 1431 1433 1435 1437 1439 1441 1443 1445 1448 1451 1454 1457 1459 1462 1464 1467 1469 1472 1475 1478 1480 1481 1482 1484 1486 1488
1387 1386 1385 1384 1383 1382 1380 1380 1379 1378 1377 1376 1376 1376 1376 1376 1376 1376 1376 1376 1377 1377 1377 1377 1377 1377 1377 1377 1378 1379 1380 1382 1383 1384 1385 1385 1386 1388 1390 1392 1392 1393 1393 1395 1397 1399 1402 1404 1405 1406 1407 1409 1412 1415 1417 1419 1421 1423 1425 1427 1430 1432 1434 1436 1438 1440 1442 1445 1447 1450 1453 1456 1458 1461 1463 1465 1468 1471 1473 1476 1478 1480 1482 1482 1484 1486
1387 1386 1385 1384 1382 1381 1380 1379 1379 1377 1376 1375 1375 1375 1375 1375 1375 1375 1375 1375 1375 1376 1376 1376 1376 1377 1377 1377 1377 1378 1380 1381 1382 1382 1383 1384 1386 1387 1390 1392 1392 1392 1392 1394 1396 1398 1401 1403 1404 1405 1407 1408 1411 1413 1416 1418 1420 1422 1424 1426 1428 1430 1432 1434 1437 1439 1441 1443 1446 1449 1452 1454 1457 1459 1461 1464 1466 1469 1472 1474 1477 1479 1480 1482 1483 1485
1386 1385 1384 1383 1382 1381 1380 1379 1378 1377 1376 1375 1374 1374 1374 1374 1374 1374 1374 1374 1374 1374 1374 1375 1376 1376 1376 1376 1377 1378 1379 1380 1381 1382 1382 1384 1385 1387 1390 1392 1392 1392 1392 1393 1394 1397 1400 1402 1403 1404 1406 1408 1410 1412 1415 1417 1419 1421 1422 1424 1426 1428 1431 1433 1436 1438 1440 1442 1445 1447 1450 1452 1455 1458 1460 1462 1465 1467 1470 1472 1474 1477 1479 1481 1483 1485
1386 1385 1383 1383 1382 1381 1380 1379 1378 1377 1376 1375 1375 1374 1373 1373 1372 1373 1373 1373 1373 1373 1373 1374 1375 1376 1376 1376 1376 1377 1378 1379 1379 1380 1382 1383 1385 1387 1390 1392 1392 1392 1392 1392 1394 1396 1399 1401 1402 1404 1405 1407 1409 1411 1414 1416 1418 1420 1422 1423 1425 1427 1430 1432 1435 1437 1440 1442 1444 1446 1448 1451 1453 1456 1458 1461 1463 1465 1468 1470 1472 1474 1477 1479 1482 1484
1386 1385 1383 1382 1382 1381 1380 1378 1377 1377 1376 1375 1375 1374 1373 1372 1372 1372 1372 1373 1373 1373 1372 1373 1374 1375 1375 1375 1376 1376 1377 1377 1378 1379 1381 1383 1385 1387 1389 1392 1393 1393 1392 1392 1393 1394 1397 1400 1402 1403 1405 1406 1408 1411 1413 1415 1417 1419 1421 1423 1425 1427 1429 1431 1434 1437 1439 1441 1443 1446 1448 1450 1452 1455 1457 1459 1461 1464 1466 1468 1471 1473 1475 1478 1480 1482
1385 1384 1383 1382 1381 1380 1380 1378 1377 1376 1375 1375 1374 1374 1373 1372 1372 1372 1372 1372 1372 1372 1372 1372 1373 1374 1375 1375 1375 1375 1376 1376 1377 1379 1380 1382 1384 1387 1389 1392 1394 1394 1393 1392 1392 1393 1395 1398 1400 1402 1404 1405 1408 1410 1413 1415 1416 1418 1421 1422 1424 1426 1428 1431 1433 1435 1438 1440 1442 1445 1447 1449 1451 1454 1456 1458 1460 1462 1464 1467 1469 1472 1474 1476 1478 1481
1385 1384 1383 1382 1381 1380 1379 1378 1377 1376 1375 1374 1374 1373 1372 1372 1372 1371 1371 1371 1371 1371 1371 1372 1372 1373 1373 1374 1374 1375 1375 1376 1377 1378 1380 1382 1384 1386 1389 1391 1394 1395 1393 1392 1392 1392 1394 1397 1399 1401 1403 1405 1407 1410 1412 1414 1415 1417 1420 1422 1423 1426 1428 1430 1432 1435 1437 1439 1441 1444 1446 1448 1451 1453 1455 1457 1459 1461 1463 1465 1468 1470 1472 1475 1477 1479
1385 1384 1383 1382 1381 1380 1378 1377 1377 1376 1375 1374 1374 1373 1372 1372 1371 1371 1370 1370 1370 1370 1370 1371 1371 1372 1373 1373 1374 1374 1375 1375 1376 1377 1379 1382 1384 1386 1388 1391 1393 1394 1393 1392 1392 1393 1394 1396 1398 1400 1402 1405 1407 1409 1411 1412 1413 1415 1418 1421 1423 1425 1427 1429 1432 1434 1436 1438 1440 1442 1445 1447 1449 1452 1454 1456 1458 1459 1462 1464 1466 1468 1471 1473 1475 1477
1384 1383 1382 1382 1381 1380 1378 1377 1377 1376 1375 1374 1374 1373 1372 1372 1371 1370 1370 1369 1369 1369 1369 1370 1371 1371 1372 1372 1373 1373 1374 1375 1376 1377 1379 1381 1383 1385 1387 1390 1392 1393 1393 1392 1392 1393 1395 1397 1398 1400 1401 1403 1406 1408 1410 1411 1412 1414 1417 1420 1422 1425 1427 1429 1431 1433 1435 1437 1439 1441 1444 1446 1448 1450 1452 1455 1457 1458 1460 1462 1464 1467 1469 1471 1473 1476
1384 1383 1382 1382 1381 1379 1378 1377 1377 1376 1375 1374 1374 1373 1372 1372 1371 1371 1370 1369 1369 1369 1369 1369 1370 1370 1372 1372 1373 1374 1375 1375 1376 1377 1378 1380 1382 1385 1387 1388 1390 1391 1392 1392 1393 1394 1395 1397 1398 1399 1401 1402 1405 1407 1408 1410 1411 1413 1416 1419 1422 1424 1426 1428 1430 1432 1434 1436 1438 1440 1442 1445 1447 1449 1451 1453 1455 1457 1459 1461 1463 1465 1467 1469 1472 1474
1384 1383 1382 1381 1380 1379 1378 1377 1377 1376 1375 1374 1374 1373 1372 1372 1371 1371 1370 1369 1369 1368 1368 1368 1369 1370 1371 1372 1372 1372 1374 1375 1376 1377 1377 1379 1381 1383 1385 1387 1388 1390 1391 1392 1393 1395 1396 1397 1398 1399 1400 1402 1404 1406 1407 1408 1410 1412 1415 1418 1421 1423 1425 1427 1429 1431 1432 1434 1436 1439 1441 1443 1446 1448 1450 1452 1454 1456 1458 1460 1461 1463 1465 1467 1469 1472
1383 1382 1382 1381 1380 1379 1378 1377 1377 1376 1375 1374 1373 1373 1372 1372 1371 1371 1370 1369 1369 1368 1368 1367 1367 1368 1369 1370 1371 1371 1372 1374 1375 1376 1377 1378 1380 1381 1383 1385 1386 1387 1389 1391 1393 1395 1396 1397 1398 1399 1400 1402 1403 1405 1407 1407 1409 1412 1414 1417 1420 1422 1424 1426 1428 1429 1431 1433 1435 1437 1440 1442 1445 1447 1449 1451 1453 1455 1456 1458 1460 1462 1464 1465 1467 1470
1383 1382 1381 1381 1380 1378 1377 1377 1376 1376 1375 1374 1373 1372 1372 1371 1371 1371 1370 1370 1369 1368 1368 1367 1367 1367 1367 1368 1369 1371 1372 1373 1374 1375 1375 1376 1377 1379 1381 1383 1384 1386 1388 1391 1393 1395 1396 1397 1399 1400 1401 1402 1403 1405 1406 1407 1408 1411 1414 1417 1419 1422 1424 1425 1427 1428 1430 1432 1434 1436 1439 1441 1444 1446 1448 1450 1452 1453 1455 1457 1458 1460 1462 1464 1466 1468
1382 1382 1381 1380 1379 1378 1377 1377 1376 1376 1375 1374 1373 1372 1371 1371 1371 1370 1370 1369 1369 1368 1368 1367 1367 1367 1367 1368 1369 1370 1371 1373 1374 1374 1374 1375 1376 1377 1380 1382 1383 1385 1388 1391 1393 1395 1397 1398 1399 1400 1401 1402 1403 1404 1405 1406 1408 1411 1413 1416 1419 1421 1423 1424 1426 1427 1429 1430 1432 1435 1437 1440 1442 1444 1447 1448 1450 1452 1454 1456 1457 1459 1461 1463 1465 1467
1381 1381 1380 1379 1379 1377 1377 1376 1376 1375 1375 1374 1373 1372 1371 1371 1370 1370 1369 1369 1369 1368 1368 1367 1367 1367 1367 1368 1368 1369 1371 1372 1373 1374 1374 1374 1375 1376 1379 1380 1382 1384 1387 1391 1393 1395 1397 1399 1400 1400 1401 1402 1403 1403 1404 1406 1409 1411 1414 1416 1418 1420 1422 1423 1425 1426 1427 1429 1431 1434 1436 1439 1441 1443 1445 1447 1449 1451 1452 1454 1456 1457 1459 1461 1463 1466
1381 1380 1379 1378 1378 1377 1377 1376 1375 1375 1374 1373 1372 1372 1371 1371 1370 1369 1368 1368 1368 1368 1368 1368 1367 1367 1367 1368 1368 1369 1370 1372 1373 1374 1374 1374 1375 1376 1378 1380 1381 1383 1387 1390 1393 1395 1397 1399 1400 1400 1401 1402 1402 1403 1405 1407 1409 1412 1413 1415 1417 1419 1421 1422 1424 1425 1426 1428 1430 1433 1435 1437 1439 1442 1444 1446 1447 1449 1451 1453 1455 1456 1458 1460 1462 1464
1380 1379 1378 1377 1377 1377 1376 1375 1375 1374 1374 1373 1372 1372 1372 1371 1369 1368 1368 1367 1367 1367 1367 1367 1367 1367 1367 1368 1368 1369 1370 1371 1372 1373 1374 1375 1375 1376 1377 1379 1381 1383 1386 1390 1393 1395 1397 1398 1400 1400 1401 1402 1402 1404 1405 1407 1409 1411 1413 1415 1417 1418 1420 1422 1423 1424 1425 1427 1429 1432 1434 1436 1438 1440 1442 1444 1446 1448 1450 1452 1453 1455 1457 1458 1460 1462
1378 1377 1377 1376 1376 1376 1376 1375 1374 1374 1373 1373 1372 1372 1372 1370 1369 1368 1367 1367 1367 1367 1366 1366 1366 1366 1367 1367 1368 1369 1370 1371 1372 1373 1374 1375 1376 1376 1376 1377 1380 1383 1386 1389 1392 1394 1396 1397 1399 1400 1401 1402 1403 1404 1406 1407 1409 1411 1412 1414 1416 1417 1419 1421 1422 1423 1424 1426 1428 1430 1432 1435 1437 1439 1441 1443 1445 1447 1449 1451 1452 1454 1456 1457 1459 1461
1377 1377 1376 1375 1375 1375 1375 1374 1373 1373 1372 1372 1372 1371 1371 1369 1368 1368 1367 1367 1367 1366 1366 1366 1366 1366 1366 1367 1367 1368 1369 1370 1372 1373 1374 1375 1376 1376 1376 1378 1380 1382 1385 1388 1391 1393 1394 1395 1397 1398 1400 1402 1403 1404 1406 1407 1409 1410 1412 1413 1415 1417 1418 1420 1421 1422 1423 1425 1427 1429 1432 1433 1435 1437 1440 1442 1444 1446 1448 1450 1451 1453 1455 1456 1458 1460
1376 1375 1375 1374 1374 1373 1373 1373 1372 1372 1371 1371 1371 1370 1369 1368 1367 1367 1367 1367 1366 1366 1365 1365 1365 1365 1366 1366 1367 1368 1368 1369 1371 1373 1374 1375 1376 1377 1377 1378 1380 1382 1384 1387 1389 1390 1392 1393 1394 1396 1398 1400 1402 1404 1406 1407 1408 1410 1411 1413 1414 1416 1418 1419 1420 1421 1422 1424 1426 1428 1431 1432 1434 1437 1439 1441 1443 1445 1447 1448 1450 1452 1453 1455 1457 1458
1375 1374 1373 1373 1372 1372 1371 1371 1370 1370 1370 1370 1370 1370 1368 1367 1367 1367 1367 1367 1366 1366 1365 1365 1365 1365 1365 1366 1367 1367 1368 1369 1370 1372 1374 1375 1376 1377 1377 1378 1379 1381 1383 1385 1387 1388 1389 1391 1392 1394 1397 1399 1401 1403 1405 1407 1408 1410 1411 1412 1414 1416 1417 1419 1420 1421 1422 1423 1425 1427 1430 1432 1434 1436 1438 1440 1442 1444 1445 1447 1449 1451 1453 1454 1456 1458
1373 1372 1372 1371 1371 1370 1369 1369 1369 1369 1369 1369 1369 1368 1367 1366 1366 1366 1366 1366 1366 1366 1365 1365 1365 1365 1366 1367 1367 1367 1368 1369 1370 1371 1373 1375 1376 1377 1377 1377 1379 1381 1383 1385 1386 1386 1387 1389 1391 1393 1395 1397 1400 1402 1404 1406 1408 1409 1411 1412 1414 1415 1417 1418 1419 1420 1422 1423 1425 1427 1429 1431 1434 1436 1437 1439 1441 1443 1445 1447 1448 1450 1452 1454 1456 1458
1372 1371 1370 1369 1369 1368 1368 1368 1368 1367 1368 1367 1367 1367 1366 1366 1366 1366 1365 1365 1365 1365 1365 1365 1365 1365 1366 1366 1367 1367 1368 1369 1370 1371 1372 1374 1376 1377 1377 1377 1379 1381 1383 1384 1385 1385 1386 1387 1390 1392 1394 1396 1399 1401 1404 1406 1408 1410 1412 1413 1414 1415 1417 1418 1419 1421 1422 1423 1424 1426 1428 1430 1432 1435 1437 1438 1440 1442 1444 1446 1447 1449 1451 1453 1455 1457
1370 1370 1369 1368 1368 1367 1367 1367 1367 1367 1366 1366 1366 1366 1365 1365 1365 1365 1364 1365 1365 1365 1365 1365 1365 1365 1365 1366 1367 1367 1368 1369 1369 1371 1372 1374 1375 1376 1377 1378 1379 1381 1382 1383 1384 1385 1386 1387 1388 1391 1393 1395 1398 1400 1403 1406 1408 1410 1412 1413 1414 1415 1416 1418 1419 1421 1422 1423 1424 1425 1427 1429 1431 1433 1435 1437 1439 1441 1442 1444 1446 1447 1449 1451 1454 1456
1370 1369 1368 1367 1367 1367 1366 1366 1366 1365 1365 1365 1365 1364 1364 1364 1364 1364 1364 1364 1364 1364 1364 1364 1364 1365 1365 1366 1367 1367 1368 1369 1369 1370 1372 1373 1375 1376 1377 1378 1379 1380 1381 1383 1384 1385 1385 1386 1388 1390 1392 1394 1397 1400 1402 1406 1409 1411 1412 1413 1414 1415 1416 1417 1419 1420 1422 1423 1424 1425 1426 1427 1429 1431 1433 1435 1437 1439 1441 1442 1444 1446 1447 1450 1452 1455
1369 1368 1368 1367 1367 1366 1366 1365 1365 1365 1364 1364 1364 1364 1363 1363 1363 1363 1363 1363 1363 1363 1363 1363 1364 1364 1365 1366 1366 1367 1368 1368 1369 1370 1371 1372 1374 1376 1377 1377 1378 1379 1380 1382 1383 1384 1385 1386 1387 1390 1392 1394 1396 1399 1402 1405 1408 1411 1412 1413 1414 1415 1415 1417 1418 1420 1422 1422 1423 1423 1425 1426 1428 1430 1432 1434 1436 1437 1439 1441 1442 1444 1446 1448 1450 1453
1369 1368 1367 1367 1366 1366 1365 1365 1364 1364 1364 1363 1363 1363 1362 1362 1362 1362 1362 1362 1362 1362 1362 1363 1363 1364 1364 1365 1365 1366 1367 1368 1369 1370 1371 1372 1373 1375 1377 1377 1378 1378 1380 1381 1382 1382 1384 1386 1388 1390 1392 1394 1396 1398 1401 1404 1407 1409 1411 1413 1413 1414 1415 1416 1417 1419 1420 1422 1422 1422 1423 1425 1427 1429 1431 1433 1435 1437 1438 1439 1440 1442 1443 1446 1448 1451
1368 1368 1367 1366 1366 1365 1364 1364 1364 1363 1363 1362 1362 1362 1362 1362 1362 1362 1362 1362 1362 1362 1362 1362 1362 1363 1363 1364 1365 1366 1367 1368 1369 1370 1371 1372 1373 1375 1376 1377 1377 1378 1379 1380 1381 1381 1383 1385 1387 1389 1392 1393 1395 1398 1400 1403 1405 1407 1409 1411 1412 1413 1414 1415 1416 1417 1419 1420 1421 1421 1422 1424 1426 1428 1431 1433 1434 1436 1437 1438 1439 1440 1442 1443 1445 1448
1368 1367 1367 1366 1365 1365 1364 1363 1363 1362 1362 1362 1362 1362 1361 1361 1361 1361 1361 1361 1361 1361 1361 1362 1362 1362 1363 1364 1365 1366 1367 1368 1369 1370 1371 1372 1372 1374 1375 1377 1377 1378 1379 1380 1380 1381 1382 1385 1387 1389 1391 1393 1395 1397 1400 1402 1404 1406 1407 1409 1411 1412 1413 1414 1415 1416 1417 1419 1419 1421 1422 1424 1426 1428 1431 1433 1434 1436 1437 1438 1439 1440 1441 1442 1443 1445
1368 1367 1367 1366 1365 1364 1364 1363 1363 1362 1362 1362 1361 1361 1361 1361 1361 1361 1360 1360 1360 1361 1361 1361 1361 1362 1362 1363 1364 1365 1367 1367 1368 1369 1370 1371 1372 1373 1375 1376 1377 1378 1379 1380 1380 1381 1382 1385 1387 1388 1389 1392 1394 1396 1398 1401 1402 1404 1406 1408 1410 1411 1412 1413 1413 1414 1416 1417 1418 1420 1422 1423 1426 1428 1431 1433 1434 1436 1437 1438 1440 1441 1441 1442 1442 1443
1368 1367 1367 1366 1365 1364 1363 1363 1362 1362 1362 1361 1361 1361 1361 1360 1360 1360 1360 1360 1360 1360 1360 1361 1361 1361 1362 1362 1363 1365 1366 1367 1368 1369 1370 1370 1371 1372 1374 1376 1377 1378 1379 1380 1380 1381 1382 1384 1386 1387 1388 1390 1392 1395 1397 1399 1401 1402 1404 1406 1408 1410 1412 1412 1412 1413 1414 1416 1417 1419 1421 1423 1425 1428 1431 1432 1434 1436 1437 1439 1440 1442 1443 1444 1445 1445
1368 1367 1366 1366 1365 1364 1363 1363 1362 1362 1361 1361 1361 1361 1360 1360 1360 1360 1360 1360 1360 1360 1360 1360 1361 1361 1362 1362 1363 1364 1366 1367 1368 1369 1369 1370 1371 1372 1374 1375 1376 1377 1378 1379 1380 1381 1382 1384 1386 1387 1388 1389 1390 1392 1395 1397 1399 1400 1401 1403 1405 1407 1410 1411 1412 1412 1413 1414 1416 1418 1420 1422 1425 1427 1430 1431 1433 1435 1437 1439 1441 1442 1444 1446 1447 1449
1368 1367 1366 1366 1365 1364 1363 1363 1362 1362 1361 1361 1361 1360 1360 1360 1360 1359 1359 1359 1359 1360 1360 1360 1360 1361 1361 1362 1362 1364 1365 1366 1367 1367 1368 1369 1370 1372 1373 1374 1376 1377 1377 1378 1380 1381 1382 1384 1385 1386 1386 1387 1389 1390 1392 1394 1396 1397 1398 1400 1402 1404 1407 1409 1410 1411 1412 1413 1415 1417 1419 1422 1424 1426 1428 1430 1432 1434 1436 1438 1440 1442 1443 1446 1448 1450
1367 1367 1366 1366 1365 1364 1363 1363 1362 1362 1361 1361 1361 1360 1360 1359 1359 1359 1359 1359 1359 1359 1359 1360 1360 1360 1361 1362 1362 1363 1364 1365 1366 1367 1367 1368 1369 1371 1372 1373 1374 1375 1376 1377 1379 1380 1382 1382 1383 1383 1384 1385 1387 1389 1391 1392 1393 1394 1395 1398 1400 1403 1405 1407 1409 1410 1411 1412 1414 1417 1419 1422 1423 1425 1427 1429 1431 1432 1434 1436 1438 1440 1441 1444 1446 1449
1368 1367 1366 1366 1365 1364 1364 1363 1362 1362 1361 1361 1361 1360 1360 1359 1359 1359 1358 1359 1359 1359 1359 1360 1360 1360 1361 1361 1362 1362 1363 1364 1365 1366 1367 1368 1369 1370 1372 1372 1373 1374 1375 1377 1378 1379 1380 1381 1382 1382 1382 1383 1384 1386 1388 1390 1391 1392 1393 1395 1398 1401 1404 1406 1407 1409 1410 1411 1413 1416 1419 1421 1423 1425 1427 1429 1430 1432 1432 1434 1436 1438 1440 1441 1443 1445
1368 1367 1367 1366 1365 1365 1364 1363 1363 1362 1362 1361 1361 1360 1359 1359 1358 1358 1358 1358 1359 1359 1359 1359 1360 1360 1361 1361 1361 1362 1363 1364 1365 1366 1367 1367 1368 1370 1371 1372 1372 1373 1374 1375 1377 1378 1379 1380 1381 1381 1382 1382 1383 1384 1386 1388 1390 1392 1392 1393 1395 1398 1402 1404 1407 1408 1409 1411 1413 1415 1418 1421 1423 1425 1427 1428 1430 1432 1433 1434 1436 1437 1440 1441 1441 1442
1368 1367 1367 1366 1365 1365 1364 1363 1363 1362 1362 1361 1360 1360 1359 1359 1358 1358 1358 1358 1358 1359 1359 1359 1360 1360 1360 1361 1361 1361 1362 1363 1364 1365 1366 1367 1368 1369 1370 1371 1372 1372 1373 1374 1376 1377 1378 1379 1380 1380 1381 1381 1382 1383 1385 1387 1390 1391 1392 1392 1393 1396 1401 1404 1407 1408 1409 1411 1413 1415 1418 1421 1422 1424 1426 1428 1430 1432 1433 1434 1436 1437 1439 1441 1442 1443
1369 1368 1367 1366 1366 1365 1364 1364 1363 1362 1361 1361 1360 1360 1359 1358 1358 1358 1358 1358 1358 1358 1359 1359 1359 1360 1360 1360 1361 1361 1361 1362 1363 1364 1365 1366 1367 1368 1369 1370 1371 1372 1372 1373 1375 1376 1378 1379 1380 1380 1381 1381 1382 1382 1384 1386 1388 1390 1391 1391 1392 1395 1399 1403 1406 1407 1409 1410 1412 1415 1417 1420 1422 1424 1425 1427 1429 1431 1433 1434 1436 1437 1439 1441 1442 1444
1370 1369 1367 1367 1366 1365 1364 1363 1362 1362 1361 1360 1360 1360 1359 1358 1358 1358 1358 1358 1358 1358 1359 1359 1359 1359 1360 1360 1360 1361 1361 1362 1362 1363 1364 1365 1367 1368 1369 1370 1370 1371 1372 1373 1374 1376 1377 1379 1379 1380 1381 1381 1382 1382 1384 1385 1387 1389 1391 1392 1393 1394 1396 1399 1402 1405 1407 1409 1412 1414 1417 1419 1421 1423 1425 1427 1428 1430 1432 1433 1435 1437 1439 1440 1441 1442
1370 1369 1368 1367 1366 1365 1364 1363 1362 1361 1361 1360 1360 1360 1359 1358 1358 1358 1358 1358 1358 1358 1359 1359 1359 1359 1360 1360 1360 1361 1361 1361 1362 1363 1364 1365 1366 1367 1368 1369 1370 1371 1372 1372 1374 1375 1377 1378 1379 1380 1381 1382 1382 1383 1384 1385 1387 1389 1391 1392 1394 1395 1396 1398 1401 1404 1406 1408 1411 1413 1416 1418 1420 1422 1425 1427 1428 1430 1432 1433 1434 1436 1438 1440 1441 1442
1371 1370 1369 1367 1366 1365 1364 1363 1362 1361 1361 1360 1360 1359 1359 1359 1358 1358 1358 1358 1358 1359 1359 1359 1359 1360 1360 1360 1361 1361 1361 1362 1362 1363 1364 1365 1366 1367 1368 1369 1370 1371 1371 1372 1373 1375 1377 1378 1379 1380 1381 1382 1383 1383 1384 1385 1386 1388 1390 1391 1393 1395 1397 1400 1402 1404 1405 1407 1409 1412 1415 1418 1420 1422 1424 1426 1428 1430 1432 1433 1435 1437 1439 1440 1442 1443
1372 1371 1369 1368 1367 1366 1365 1363 1362 1362 1361 1360 1360 1359 1359 1359 1359 1359 1359 1359 1359 1359 1359 1360 1360 1360 1360 1361 1361 1361 1362 1362 1362 1363 1364 1365 1366 1367 1368 1369 1370 1371 1371 1372 1373 1374 1376 1377 1379 1381 1382 1382 1382 1383 1384 1385 1386 1387 1388 1390 1392 1394 1397 1400 1402 1404 1405 1407 1409 1412 1414 1417 1419 1421 1423 1425 1427 1429 1432 1434 1436 1437 1439 1441 1442 1444
1373 1372 1370 1369 1368 1367 1365 1364 1363 1362 1361 1361 1360 1360 1359 1359 1359 1359 1359 1359 1359 1360 1360 1360 1361 1361 1361 1361 1362 1362 1362 1362 1363 1363 1364 1365 1366 1367 1368 1369 1370 1371 1372 1372 1373 1374 1376 1377 1379 1380 1381 1382 1382 1382 1383 1385 1386 1387 1388 1390 1392 1393 1396 1399 1401 1404 1406 1408 1411 1412 1415 1416 1417 1419 1421 1424 1427 1429 1432 1434 1436 1438 1440 1441 1442 1444
1375 1373 1372 1370 1369 1367 1366 1365 1364 1363 1362 1362 1361 1360 1360 1360 1360 1360 1360 1360 1360 1360 1361 1361 1361 1362 1362 1362 1362 1362 1363 1363 1363 1364 1365 1366 1367 1367 1368 1369 1370 1371 1372 1372 1374 1375 1376 1377 1379 1380 1381 1382 1383 1383 1383 1384 1386 1387 1388 1389 1391 1393 1395 1398 1401 1404 1406 1409 1411 1413 1415 1417 1418 1419 1420 1423 1426 1429 1431 1434 1436 1438 1440 1442 1443 1444
1376 1375 1373 1372 1370 1369 1367 1367 1365 1364 1363 1363 1362 1362 1361 1361 1361 1361 1361 1361 1361 1361 1361 1362 1362 1362 1362 1363 1363 1363 1363 1364 1364 1364 1365 1366 1367 1367 1369 1370 1371 1371 1372 1372 1374 1375 1376 1378 1379 1381 1381 1382 1383 1384 1384 1384 1385 1387 1388 1390 1391 1392 1395 1398 1401 1404 1406 1408 1410 1413 1415 1417 1419 1420 1421 1422 1424 1427 1431 1433 1436 1438 1440 1442 1443 1444
1377 1376 1374 1373 1372 1370 1369 1368 1367 1366 1365 1364 1364 1363 1362 1362 1362 1362 1362 1362 1362 1362 1362 1363 1363 1363 1363 1364 1364 1364 1364 1364 1365 1365 1366 1366 1367 1368 1368 1370 1371 1371 1372 1372 1373 1375 1376 1378 1380 1382 1383 1382 1383 1384 1385 1384 1385 1386 1388 1390 1391 1392 1394 1397 1401 1403 1406 1408 1410 1413 1415 1417 1419 1420 1421 1422 1423 1427 1430 1433 1436 1438 1440 1441 1442 1444